This is the latest recevied weather packets stored in our database for station/object WA6ODQ-13. If no packets are shown the sender has not sent any weather packets the latest 10 day(s).
| Time | Temp. | Humidity | Pressure | Rain* | Wind** | Luminosity | Snow |
|---|---|---|---|---|---|---|---|
| 1778118933 | 22.22° C | 64% | 1015 hPa | 0 mm | - | 70 W/m² | - |
| 1778118630 | 22.78° C | 63% | 1014.9 hPa | 0 mm | - | 79 W/m² | - |
| 1778118326 | 22.78° C | 63% | 1015.1 hPa | 0 mm | - | 89 W/m² | - |
| 1778118022 | 23.33° C | 63% | 1014.9 hPa | 0 mm | - | 99 W/m² | - |
| 1778117719 | 22.78° C | 63% | 1014.9 hPa | 0 mm | - | 109 W/m² | - |
| 1778117416 | 22.78° C | 63% | 1015.1 hPa | 0 mm | - | 120 W/m² | - |
| 1778117113 | 23.33° C | 63% | 1015.1 hPa | 0 mm | - | 130 W/m² | - |
| 1778116809 | 23.33° C | 63% | 1015.3 hPa | 0 mm | - | 142 W/m² | - |
| 1778116507 | 23.33° C | 63% | 1015.3 hPa | 0 mm | - | 154 W/m² | - |
| 1778116203 | 23.33° C | 63% | 1015.2 hPa | 0 mm | - | 166 W/m² | - |
| 1778115897 | 23.33° C | 63% | 1015.2 hPa | 0 mm | - | 178 W/m² | - |
| 1778115593 | 23.89° C | 61% | 1015 hPa | 0 mm | - | 191 W/m² | - |
| 1778115291 | 23.89° C | 63% | 1015.1 hPa | 0 mm | - | 204 W/m² | - |
| 1778114987 | 24.44° C | 62% | 1015.3 hPa | 0 mm | - | 218 W/m² | - |
| 1778114684 | 24.44° C | 61% | 1015.3 hPa | 0 mm | - | 231 W/m² | - |
| 1778114382 | 25° C | 60% | 1015.2 hPa | 0 mm | - | 245 W/m² | - |
| 1778114076 | 25.56° C | 58% | 1015.4 hPa | 0 mm | - | 258 W/m² | - |
| 1778113772 | 25° C | 58% | 1015.3 hPa | 0 mm | - | 272 W/m² | - |
| 1778113468 | 25.56° C | 57% | 1015.3 hPa | 0 mm | - | 286 W/m² | - |
| 1778113165 | 25° C | 59% | 1015.1 hPa | 0 mm | - | 301 W/m² | - |
| 1778112862 | 25.56° C | 57% | 1015.1 hPa | 0 mm | - | 315 W/m² | - |
| 1778112560 | 25.56° C | 57% | 1015.3 hPa | 0 mm | - | 329 W/m² | - |
| 1778112255 | 26.11° C | 57% | 1015.1 hPa | 0 mm | - | 344 W/m² | - |
| 1778111951 | 26.67° C | 55% | 1015.1 hPa | 0 mm | - | 358 W/m² | - |
| 1778111649 | 26.67° C | 54% | 1015.4 hPa | 0 mm | - | 370 W/m² | - |
* Rain latest hour (hover to see other rain measurements)
** Current wind speed in m/s (hover to see current wind gust speed)